This is the latest recevied weather packets stored in our database for station/object WB0OCV. If no packets are shown the sender has not sent any weather packets the latest 10 day(s).
| Time | Temp. | Humidity | Pressure | Rain* | Wind** | Luminosity | Snow |
|---|---|---|---|---|---|---|---|
| 1777577749 | 11.11° C | 96% | 1008.2 hPa | 0 mm | - | 73 W/m² | - |
| 1777577446 | 11.11° C | 96% | 1007.9 hPa | 1.78 mm | - | 91 W/m² | - |
| 1777577143 | 11.11° C | 95% | 1007.7 hPa | 1.78 mm | - | 74 W/m² | - |
| 1777576840 | 11.11° C | 95% | 1008 hPa | 0 mm | - | 91 W/m² | - |
| 1777576235 | 11.11° C | 93% | 1008 hPa | 0 mm | - | 83 W/m² | - |
| 1777575931 | 11.67° C | 92% | 1008 hPa | 0 mm | - | 51 W/m² | - |
| 1777575324 | 11.67° C | 90% | 1008.1 hPa | 0 mm | - | 54 W/m² | - |
| 1777575020 | 11.67° C | 90% | 1008 hPa | 0 mm | - | 60 W/m² | - |
| 1777574716 | 11.67° C | 89% | 1007.8 hPa | 0 mm | - | 94 W/m² | - |
| 1777574109 | 12.22° C | 89% | 1008.1 hPa | 0 mm | - | 104 W/m² | - |
| 1777573500 | 12.22° C | 89% | 1008.1 hPa | 0 mm | - | 96 W/m² | - |
| 1777572893 | 12.22° C | 89% | 1008.4 hPa | 0 mm | - | 127 W/m² | - |
| 1777571378 | 12.78° C | 86% | 1008.6 hPa | 0 mm | - | 112 W/m² | - |
| 1777570769 | 13.33° C | 85% | 1008.6 hPa | 0 mm | - | 124 W/m² | - |
| 1777570466 | 13.33° C | 85% | 1008.7 hPa | 0 mm | - | 182 W/m² | - |
| 1777570161 | 13.89° C | 84% | 1008.4 hPa | 0 mm | - | 253 W/m² | - |
| 1777569858 | 13.33° C | 87% | 1008.8 hPa | 0 mm | - | 269 W/m² | - |
| 1777568947 | 13.89° C | 84% | 1008.6 hPa | 0 mm | - | 392 W/m² | - |
| 1777568341 | 12.78° C | 84% | 1008.8 hPa | 0 mm | - | 164 W/m² | - |
| 1777568037 | 13.33° C | 84% | 1008.9 hPa | 0 mm | - | 101 W/m² | - |
| 1777567734 | 13.89° C | 82% | 1008.9 hPa | 0 mm | - | 123 W/m² | - |
| 1777566524 | 13.89° C | 80% | 1008.8 hPa | 0 mm | - | 292 W/m² | - |
| 1777565918 | 14.44° C | 79% | 1008.9 hPa | 0 mm | - | 237 W/m² | - |
| 1777564702 | 15° C | 78% | 1008.7 hPa | 0 mm | - | 251 W/m² | - |
| 1777562277 | 13.89° C | 81% | 1008.8 hPa | 0 mm | - | 358 W/m² | - |
* Rain latest hour (hover to see other rain measurements)
** Current wind speed in m/s (hover to see current wind gust speed)